This is the latest recevied weather packets stored in our database for station/object DL6DJ-15. If no packets are shown the sender has not sent any weather packets the latest 10 day(s).
| Time | Temp. | Humidity | Pressure | Rain* | Wind** | Luminosity | Snow |
|---|---|---|---|---|---|---|---|
| 1777637000 | 23.33° C | 20% | 1028.8 hPa | - | - | - | - |
| 1777636700 | 22.78° C | 23% | 1028.8 hPa | - | - | - | - |
| 1777636399 | 22.22° C | 22% | 1028.8 hPa | - | - | - | - |
| 1777636099 | 22.22° C | 21% | 1029 hPa | - | - | - | - |
| 1777635799 | 22.22° C | 24% | 1028.9 hPa | - | - | - | - |
| 1777635498 | 22.22° C | 23% | 1029 hPa | - | - | - | - |
| 1777635197 | 22.78° C | 21% | 1029.1 hPa | - | - | - | - |
| 1777634897 | 22.78° C | 22% | 1029.1 hPa | - | - | - | - |
| 1777634597 | 22.78° C | 20% | 1029.1 hPa | - | - | - | - |
| 1777634297 | 22.22° C | 20% | 1029.3 hPa | - | - | - | - |
| 1777633996 | 23.33° C | 21% | 1029.3 hPa | - | - | - | - |
| 1777633696 | 23.33° C | 20% | 1029.3 hPa | - | - | - | - |
| 1777633396 | 23.33° C | 22% | 1029.4 hPa | - | - | - | - |
| 1777633095 | 22.78° C | 21% | 1029.4 hPa | - | - | - | - |
| 1777632795 | 23.33° C | 20% | 1029.4 hPa | - | - | - | - |
| 1777632494 | 22.22° C | 22% | 1029.4 hPa | - | - | - | - |
| 1777632194 | 22.78° C | 21% | 1029.5 hPa | - | - | - | - |
| 1777631894 | 23.89° C | 19% | 1029.4 hPa | - | - | - | - |
| 1777631593 | 23.33° C | 20% | 1029.5 hPa | - | - | - | - |
| 1777631293 | 24.44° C | 20% | 1029.6 hPa | - | - | - | - |
| 1777630993 | 23.89° C | 20% | 1029.6 hPa | - | - | - | - |
| 1777630693 | 22.22° C | 21% | 1029.7 hPa | - | - | - | - |
| 1777630392 | 23.33° C | 21% | 1029.5 hPa | - | - | - | - |
| 1777630092 | 24.44° C | 18% | 1029.5 hPa | - | - | - | - |
| 1777629791 | 23.33° C | 19% | 1029.7 hPa | - | - | - | - |
* Rain since midnight (hover to see other rain measurements)
** Current wind speed in m/s (hover to see current wind gust speed)